This is the latest recevied weather packets stored in our database for station/object W6SNO-1. If no packets are shown the sender has not sent any weather packets the latest 10 day(s).
| Time | Temp. | Humidity | Pressure | Rain* | Wind** | Luminosity | Snow |
|---|---|---|---|---|---|---|---|
| 1778182131 | 18.33° C | 72% | 1018.9 hPa | 0 mm | - | 789 W/m² | - |
| 1778181827 | 17.78° C | 73% | 1019 hPa | 0 mm | - | 789 W/m² | - |
| 1778181524 | 18.33° C | 73% | 1018.8 hPa | 0 mm | - | 789 W/m² | - |
| 1778181220 | 18.33° C | 73% | 1019 hPa | 0 mm | - | 786 W/m² | - |
| 1778180918 | 17.78° C | 74% | 1019.1 hPa | 0 mm | - | 787 W/m² | - |
| 1778180616 | 17.78° C | 74% | 1019.1 hPa | 0 mm | - | 779 W/m² | - |
| 1778180314 | 17.78° C | 74% | 1019.1 hPa | 0 mm | - | 764 W/m² | - |
| 1778180011 | 17.78° C | 74% | 1019.1 hPa | 0 mm | - | 775 W/m² | - |
| 1778179708 | 17.22° C | 76% | 1019.3 hPa | 0 mm | - | 762 W/m² | - |
| 1778179406 | 17.22° C | 77% | 1019.3 hPa | 0 mm | - | 766 W/m² | - |
| 1778179102 | 16.67° C | 77% | 1019.2 hPa | 0 mm | - | 753 W/m² | - |
| 1778178800 | 16.67° C | 79% | 1019.2 hPa | 0 mm | - | 756 W/m² | - |
| 1778178497 | 16.67° C | 78% | 1019.4 hPa | 0 mm | - | 782 W/m² | - |
| 1778178192 | 16.67° C | 79% | 1019.4 hPa | 0 mm | - | 739 W/m² | - |
| 1778177889 | 16.11° C | 80% | 1019.4 hPa | 0 mm | - | 561 W/m² | - |
| 1778177585 | 15.56° C | 82% | 1019.4 hPa | 0 mm | - | 639 W/m² | - |
| 1778177282 | 15.56° C | 82% | 1019.4 hPa | 0 mm | - | 384 W/m² | - |
| 1778176979 | 15.56° C | 82% | 1019.2 hPa | 0 mm | - | 415 W/m² | - |
| 1778176674 | 15.56° C | 83% | 1019.4 hPa | 0 mm | - | 339 W/m² | - |
| 1778176371 | 15.56° C | 84% | 1019.4 hPa | 0 mm | - | 295 W/m² | - |
| 1778176069 | 15.56° C | 84% | 1019.4 hPa | 0 mm | - | 283 W/m² | - |
| 1778175767 | 15° C | 85% | 1019.4 hPa | 0 mm | - | 289 W/m² | - |
| 1778175464 | 14.44° C | 86% | 1019.4 hPa | 0 mm | - | 263 W/m² | - |
| 1778175161 | 14.44° C | 87% | 1019.4 hPa | 0 mm | - | 242 W/m² | - |
| 1778174857 | 15° C | 86% | 1019.4 hPa | 0 mm | - | 228 W/m² | - |
* Rain latest hour (hover to see other rain measurements)
** Current wind speed in m/s (hover to see current wind gust speed)